www.pogodaiklimat.ru

Погода и климат >> Архив погоды >> Россия >> Хабаровский край >> Хабаровск


АРХИВ ПОГОДЫ в Хабаровске

Время (UTC), дата Ветер
(напр.,м/с)
 
Видим.   Явления Облачность Т
(С)
Тd
(С)
f
(%)
Тe
(С)
Тes
(С)
Комфортность P
(гПа)
Po
(гПа)
Тmin
(С)
Tmax
(С)
R
(мм)
R24
(мм)
S
(см)
21 16.04 Ю 4 10 км 5/0
[Ci fib]
+5.7 -5.3 45 +2 +3 по сезону 1010.8 1002.2 +3.4
00 17.04 Ю 5 10 км 5/0
[Ci fib]
+11.6 -4.0 33 +10 +14 тепло 1009.5 1001.3
03 17.04 ЮЗ 6 10 км 9/0
[Ac trans Ci fib]
+16.0 -4.3 24 +15 +18 тепло 1007.9 999.9
06 17.04 ЮЗ 8-11
{13}
10 км 9/0
[Ac trans Ci fib]
+16.4 -2.4 27 +15 +16 тепло 1006.1 998.1
09 17.04 ЮЗ 6
{11}
10 км 9/3 1000 м
[Cb cap Ac trans]
+15.5 +2.5 42 +14 +14 тепло 1006.1 997.8 +17.7
12 17.04 Ю 2 10 км 8/0
[Ac trans]
+11.1 +3.8 61 +10 +10 тепло 1007.0 998.8
15 17.04 Ю 2 10 км 8/0
[Ac trans]
+10.7 +2.7 58 +10 +10 тепло 1006.9 998.7
18 17.04 ЮВ 1 10 км 8/0
[Ac trans]
+8.4 +0.9 59 +8 +8 тепло 1006.1 997.8
21 17.04 Ю 1 10 км 10/4 1000 м
[Cb cap As op]
+8.2 +2.1 65 +8 +8 тепло 1007.2 998.9 +7.1
00 18.04 СВ 2 10 км слабый ливневой дождь 10/4 600 м
[Cb cap Ac und]
+7.9 +3.7 75 +6 +8 по сезону 1007.9 999.4 +6.6
03 18.04 Ю 4 10 км {ливн. осадки} 10/3 600 м
[Cb cap Ac As]
+14.9 +2.5 43 +14 +16 тепло 1006.6 998.4
06 18.04 ЮЗ 4 10 км {ливн. осадки} 6/0
[Ac trans Ci fib]
+16.9 +2.7 39 +16 +21 тепло 1005.4 997.2
09 18.04 ЮЗ 4 10 км 4/0
[Ac trans]
+15.4 +3.8 46 +15 +15 тепло 1005.2 996.9 +17.5 0.0
12 18.04 ЮВ 3 10 км 4/0
[Ac trans]
+11.3 +4.8 64 +10 +10 тепло 1005.9 997.6
15 18.04 З 3 10 км 6/0
[Ac trans Ci fib]
+9.4 +2.8 63 +7 +7 тепло 1006.2 997.8
18 18.04 С 4 5000 м мгла ясно +3.8 +3.5 98 -1 -1 по сезону 1007.4 998.8
21 18.04 С 5 100 м туман 10/10 30 м
[St]
+3.1 +3.1 100 -2 -2 прохладно 1008.8 1000.1 +2.8
00 19.04 С 2 900 м туман ?/? +4.9 +4.9 100 +2 +2 по сезону 1009.5 1001.0
03 19.04 С 2 10 км 9/0
[Ac trans Ci fib]
+14.2 +6.1 58 +14 +24 тепло 1008.6 1000.3
06 19.04 ЮЗ 1 10 км 9/0
[Ac trans Ci fib]
+17.6 +1.3 33 +19 +25 тепло 1007.1 998.9
09 19.04 З 2 10 км 9/0
[Ac trans Ci fib]
+16.7 +1.5 36 +17 +17 тепло 1007.2 999.0 +18.5
12 19.04 ЮЗ 3 10 км 9/0
[Ac trans Ci fib]
+11.3 +2.7 55 +10 +10 тепло 1009.5 1001.1
15 19.04 ЮЗ 5 10 км 6/0
[Ci fib]
+10.5 +4.3 65 +8 +8 тепло 1010.0 1001.6
18 19.04 ЮЗ 8
{10}
10 км 6/0
[Ci fib]
+11.6 +3.4 57 +8 +8 тепло 1010.4 1001.9
21 19.04 З 7
{11}
10 км 9/0
[Ac trans Ci fib]
+11.1 +5.1 66 +8 +8 тепло 1010.1 1001.7 +8.9
00 20.04 ЮЗ 6
{11}
10 км 9/0
[Ac trans Ci fib]
+13.0 +4.5 56 +11 +13 тепло 1009.8 1001.5
03 20.04 ЮЗ 9
{15}
10 км 9/3 1000 м
[Sc Ac trans]
+18.2 +5.3 43 +17 +18 тепло 1009.9 1001.7
06 20.04 ЮЗ 9-13
{15}
10 км 9/0
[Ac trans]
+20.7 +2.2 29 +20 +21 тепло 1007.1 999.0
09 20.04 ЮЗ 4
{14}
10 км 10/3 1000 м
[Cb cap Ac As]
+18.0 +6.9 48 +18 +18 тепло 1005.1 997.0 +21.6
12 20.04 ЮЗ 4
{16}
10 км 10/3 1000 м
[Cb cap Ac As]
+15.8 +5.2 49 +15 +15 тепло 1005.2 996.9
15 20.04 ЮЗ 9-13
{14}
10 км 10/0 1000 м
[Ac As]
+13.6 +9.2 75 +11 +11 тепло 1003.4 995.1
18 20.04 ЮЗ 4
{14}
10 км слабый ливневой дождь 10/5 600 м
[Cb cap Ac As]
+12.6 +9.3 80 +11 +11 тепло 1001.8 993.5
21 20.04 З 5 5000 м слабый ливневой дождь 10/8 800 м
[Cb cap Ac As]
+10.1 +9.7 97 +7 +7 тепло 1001.4 993.0 +10.1 0.8
00 21.04 З 6 10 км {ливн. осадки} 9/4 900 м
[Cb cap Ac trans]
+10.0 +4.0 66 +7 +8 по сезону 1004.7 996.3 +9.5
03 21.04 СЗ 2 10 км {ливн. осадки} 10/4 600 м
[Cb cap As trans]
+11.2 -5.0 32 +10 +14 тепло 1008.7 1000.3
06 21.04 З 7-10
{11}
10 км 9/3 1000 м
[Sc Ac trans]
+15.9 -11.8 14 +15 +15 тепло 1009.1 1001.0
09 21.04 З 7
{11}
10 км 8/0
[Ci fib]
+13.7 -11.7 16 +12 +12 тепло 1011.5 1003.1 +16.1 0.0
12 21.04 С 5
{11}
10 км 8/0
[Ci fib]
+6.6 -4.3 46 +3 +3 по сезону 1017.2 1008.5
15 21.04 С 2 10 км 8/0
[Ac trans]
+4.0 -2.3 63 +2 +2 по сезону 1020.2 1011.5
18 21.04 З 2 10 км 5/0
[Ac trans]
+1.2 -2.1 79 -2 -2 по сезону 1022.1 1013.5
21 21.04 З 1 10 км ясно +1.1 -1.3 84 -1 0 по сезону 1023.6 1015.0 0.0
00 22.04 З 5 10 км 8/0
[Ac trans Ci fib]
+9.1 -2.8 43 +6 +10 по сезону 1023.6 1015.0
03 22.04 З 7
{11}
10 км 6/3 1000 м
[Cu hum Ac trans]
+12.4 -11.3 18 +10 +12 тепло 1021.9 1013.4
06 22.04 СЗ 10-13
{14}
10 км 5/1 600 м
[Cu hum Ac trans]
+14.3 -15.0 12 +12 +12 тепло 1020.2 1011.8
09 22.04 З 7-11
{15}
10 км 4/0
[Ac trans]
+12.3 -14.6 14 +10 +10 тепло 1021.0 1012.5 +14.7
12 22.04 С 4
{15}
10 км ясно +5.6 -8.4 36 +3 +3 по сезону 1024.2 1015.5
15 22.04 СЗ 2 10 км ясно +0.8 -2.9 76 -3 -3 прохладно 1025.9 1017.0
18 22.04 штиль 0 10 км ясно -0.6 -2.8 85 -2 -2 по сезону 1026.5 1017.6
21 22.04 штиль 0 10 км 3/0
[Ac trans]
+0.6 -2.8 78 -0 0 по сезону 1026.6 1017.7 -2.2
00 23.04 З 4 10 км 4/0
[Ci fib]
+10.0 -6.6 30 +8 +14 тепло 1026.0 1017.6
03 23.04 З 5
{11}
10 км ясно +13.9 -12.7 15 +13 +21 тепло 1023.9 1015.4
06 23.04 З 5
{11}
10 км 8/0
[Ci fib]
+15.4 -11.4 15 +14 +18 тепло 1021.0 1012.8
09 23.04 ЮЗ 4 10 км 9/0
[Ac trans Ci fib]
+13.1 -9.6 20 +12 +12 тепло 1019.9 1011.4 +16.2
12 23.04 Ю 1 10 км 9/0
[Ci fib]
+7.4 -6.6 36 +7 +7 тепло 1019.9 1011.5
15 23.04 Ю 2 10 км 9/0
[Ci fib]
+4.5 -6.2 46 +3 +3 по сезону 1019.8 1011.1
18 23.04 Ю 2 10 км 6/0
[Ci fib]
+4.9 -6.1 45 +3 +3 по сезону 1018.5 1010.0

 

Местоположение метеостанции Хабаровск (Хабаровский край, Россия): широта 48.52 долгота 135.10 высота над уровнем моря 76 м.

В архиве по умолчанию представлена погода в Хабаровске за последнюю неделю. Архивные данные за месяц целиком и за предыдущие месяцы, начиная с января 2011 года, Вы можете получить, выбрав интересующий диапазон дат из раскрывающегося списка и нажав кнопку "Ввод!".


*Определитесь, кто Вы:
робот инопланетянин человек

Внимание! Время в таблицах - всемирное. Для получения местного времени необходимо прибавить поправку, которая в Хабаровске равна 10 ч.

Смотрите также архив погоды в соседних городах и на ближайших метеорологических станциях:

Погода в Хабаровске АМС (Хабаровский край, Россия) (6 км)
Погода в Хабаровск Мосту (Хабаровский край, Россия) (6 км)
Погода в Хабаровске Аэр. Большой (Хабаровский край, Россия) (8 км)
Погода в Хабаровске 21 км (Хабаровский край, Россия) (19 км)
Погода в Князе-Волконском (Хабаровский край, Россия) (28 км)
Погода в Бычихе (Хабаровский край, Россия) (32 км)
Погода в Елабуге (Хабаровский край, Россия) (61 км)
Погода в Оборе (Хабаровский край, Россия) (62 км)
Погода в Георгиевке (Хабаровский край, Россия) (64 км)
Погода в Хабаровске Центр (Еврейская автономная область, Россия) (76 км)

Пояснения к столбцам:

Ветер - указаны скорость ветра в м/с - средняя за 10 мин, порывы в срок и между сроками (в фигурных скобках) и направление, откуда дует ветер: С - северный, СВ - северо-восточный, В - восточный, ЮВ - юго-восточный, Ю - южный, ЮЗ - юго-западный, З - западный, СЗ - северо-западный.
Видимость - горизонтальная дальность видимости в метрах или километрах. При видимости от 1 до 10 км при отсутствии осадков обычно наблюдается дымка, при ухудшении видимости до 1 км и менее - туман. В сухую погоду видимость может ухудшаться дымом, пылью или мглою.
Явления - указаны атмосферные явления, наблюдавшиеся в срок или в последний час перед сроком; фигурными скобками обозначены явления, наблюдавшиеся между сроками (за 1-3 часа до срока); квадратными скобками обозначены град или гололедные отложения с указанием их диаметра в мм.
Облачность - указаны через наклонную черту общая и нижняя облачность в баллах и высота нижней границы облаков в метрах; квадратными скобками обозначены формы облаков: Ci - перистые, Cs - перисто-слоистые, Cc - перисто-кучевые, Ac - высококучевые, As - высокослоистые, Sc - слоисто-кучевые, Ns - слоисто-дождевые, Cu - кучевые, Cb - кучево-дождевые. Подробнее классификацию облаков см. в Атласе облаков (PDF).
T - Температура воздуха - температура, измеренная на высоте 2 м над землей.
Td - Температура точки росы - температура, при понижении до которой содержащийся в воздухе водяной пар достигнет насыщения.
f - Относительная влажность воздуха - влажноcть воздуха, измеренная на высоте 2 м над землей.
Te - Эффективная температура - температура, которую ощущает одетый по сезону человек в тени. Характеристика душности погоды. При расчете учитывается влияние влажности воздуха и скорости ветра на теплоощущения человека.
Tes - Эффективная температура на солнце - температура, которую ощущает человек, с поправкой на солнечный нагрев. Характеристика знойности погоды. Зависит от высоты солнца над горизонтом, облачности и скорости ветра. Ночью, в пасмурную погоду, а также при ветре 12 м/с и более поправка равна нулю.
P - Атмосферное давление - приведенное к уровню моря атмосферное давление.
Po - Атмосферное давление - измеренное на уровне метеостанции атмосферное давление.
Tmin - Минимальная температура - минимум температуры воздуха на высоте 2 м над землей.
Tmax - Максимальная температура - максимум температуры воздуха на высоте 2 м над землей.
R - Количество осадков - Количество выпавших осадков за период времени, мм. При наведении курсора мыши на число - период времени, за который выпало указанное количество осадков.
R24 - Количество осадков - Количество выпавших осадков за 24 часа, мм.
S - Снежный покров - Высота снежного покрова, см. При наведении курсора мыши на число - состояние снежного покрова и степень покрытия местности в баллах.